[[{"header":{"parameterUnit":"m.s-1","parameterCategory":1,"la1":30.2991,"la2":30.254,"lo1":-89.0895,"lo2":-89.0444,"dy":0.0017,"dx":0.0017,"nx":28,"ny":28,"refTime":"2025-12-19T09:00:00:Z","depth":0,"parameterNumber":2,"parameterNumberName":"U-component_of_WINDS"},"data":[0,0,0,0,0,0,0,0,0,0,0,0,0,0,0,0,0,0,0,0,0,0,0,0,0,0,0,0,0,0,0,0,0,0,0,0,0,0,0,0,0,0,0,0,0,0,0,0,0,0,0,0,0,0,0,0,0,0,-4.1225,-4.1225,0,-4.1286,-4.1287,-4.1287,-4.1203,-4.12,-4.1197,-4.1194,-4.1255,-4.1259,-4.1264,0,0,0,0,0,0,0,0,0,0,0,0,0,-4.1032,-4.1036,-4.1224,-4.1225,-4.1226,-4.1286,-4.1287,-4.1288,-4.1204,-4.12,-4.1196,-4.1193,-4.1254,-4.1259,-4.1264,0,0,0,0,0,0,0,0,0,0,0,0,0,-4.1107,-4.1038,-4.1224,-4.1191,-4.1189,-4.1286,-4.1287,-4.1288,-4.1205,-4.12,-4.1196,-4.1191,-4.1252,-4.1258,-4.1265,-4.1396,0,0,-4.1285,-4.1288,0,0,0,0,0,0,0,0,-4.1103,-4.1114,-4.1196,-4.1194,-4.1191,-4.1232,-4.1241,-4.1324,-4.1206,-4.1199,-4.1194,-4.1189,-4.1251,-4.1257,-4.1279,-4.1399,-4.1401,-4.1286,-4.129,-4.1292,-4.1294,0,0,0,0,0,0,0,-4.1098,-4.1111,-4.1249,-4.1197,-4.1194,-4.1173,-4.1179,-4.1256,-4.1249,-4.1199,-4.1193,-4.1202,-4.1249,-4.1273,-4.128,-4.1402,-4.1285,-4.1291,-4.1295,-4.1298,-4.1632,-4.1636,0,0,0,0,0,0,-4.1097,-4.1107,-4.1247,-4.125,-4.1135,-4.118,-4.1186,-4.1224,-4.1248,-4.1248,-4.1205,-4.1197,-4.1263,-4.1272,-4.1281,-4.1435,-4.1292,-4.1299,-4.1302,-4.1627,-4.1633,-4.1638,0,0,0,0,0,0,-4.1093,-4.111,-4.1244,-4.1177,-4.1193,-4.1188,-4.1231,-4.1227,-4.1251,-4.1253,-4.1251,-4.1231,-4.126,-4.1272,-4.1368,-4.1436,-4.1302,-4.1308,-4.1621,-4.1629,-4.1635,-4.1744,0,0,0,0,0,0,-4.1088,-4.1109,-4.1159,-4.1179,-4.1197,-4.1331,-4.1235,-4.1232,-4.1263,-4.1253,-4.1276,-4.1276,-4.1258,-4.1358,-4.1375,-4.1442,-4.1313,-4.1615,-4.1624,-4.1633,-4.1734,-4.1754,-4.1771,0,0,0,0,0,-4.1081,-4.1187,-4.1162,-4.118,-4.1259,-4.1335,-4.1345,-4.1322,-4.1269,-4.1318,-4.132,-4.1275,-4.1427,-4.1369,-4.1386,-4.1457,-4.161,-4.1622,-4.1632,-4.1726,-4.175,-4.1771,0,0,0,0,0,0,-4.1174,-4.1189,-4.1162,-4.1277,-4.1306,-4.132,-4.1382,-4.1349,-4.1392,-4.1381,-4.135,-4.1356,-4.1459,-4.1468,-4.1404,-4.1585,-4.1509,-4.1524,-4.1575,-4.1598,-4.1616,-4.161,-4.1318,0,0,0,0,0,-4.1208,-4.1269,-4.1278,-4.1379,-4.1395,-4.1387,-4.1419,-4.1399,-4.1427,-4.1438,-4.1446,-4.1474,-4.1528,-4.1564,-4.1613,-4.1736,-4.1739,-4.1794,-4.1812,-4.1827,-4.184,-4.1904,-4.1928,-4.1674,-4.1674,-4.1674,0,0,-4.1279,-4.1294,-4.1334,-4.1398,-4.1418,-4.148,-4.1397,-4.1467,-4.1513,-4.1448,-4.1539,-4.1547,-4.1576,-4.1686,-4.1734,-4.1696,-4.1911,-4.1841,-4.1853,-4.1857,-4.1918,-4.1942,-4.1963,-4.1682,-4.168,-4.1679,0,0,-4.1438,-4.1458,-4.1543,-4.1565,-4.1596,-4.159,-4.1611,-4.1631,-4.1634,-4.1725,-4.1678,-4.1732,-4.1826,-4.1848,-4.1872,-4.2042,-4.2002,-4.2059,-4.2154,-4.2217,-4.2237,-4.2255,-4.2313,-4.2335,-4.2072,-4.2073,-4.2073,0,-4.1521,-4.1614,-4.1591,-4.1664,-4.1693,-4.164,-4.1725,-4.1747,-4.1793,-4.1814,-4.1772,-4.1888,-4.1904,-4.2017,-4.2059,-4.2081,-4.2102,-4.2055,-4.2237,-4.2254,-4.227,-4.2325,-4.2348,-4.2079,-4.2078,-4.2078,-4.2077,0,-4.1714,-4.1779,-4.1845,-4.1891,-4.1928,-4.2007,-4.1995,-4.2035,-4.2013,-4.2011,-4.2104,-4.2123,-4.2174,-4.2201,-4.218,-4.2311,-4.2287,-4.2242,-4.2164,-4.2301,-4.2352,-4.2374,-4.2089,-4.2086,-4.2084,-4.2083,0,0,-4.193,-4.1964,-4.1988,-4.2008,-4.204,-4.2089,-4.2166,-4.2218,-4.2252,-4.2287,-4.2349,-4.2431,-4.2389,-4.2416,-4.2397,-4.2453,-4.2585,-4.2401,-4.2401,-4.2432,-4.2729,-4.2761,-4.2786,-4.256,-4.2564,-4.2567,-4.2726,0,-4.2088,-4.2221,-4.2203,-4.233,-4.2389,-4.2341,-4.2408,-4.2434,-4.2435,-4.2485,-4.2487,-4.2544,-4.2486,-4.2502,-4.2555,-4.2558,-4.2644,-4.2546,-4.2616,-4.2619,-4.2607,-4.2813,-4.2846,-4.2995,-4.2746,-4.2749,-4.2752,0,-4.2288,-4.233,-4.2464,-4.2486,-4.2511,-4.2571,-4.2617,-4.2666,-4.2695,-4.2692,-4.2724,-4.2695,-4.2772,-4.2696,-4.28,-4.2734,-4.2762,-4.2768,-4.2774,-4.2776,-4.2691,-4.2819,-4.3042,-4.3063,-4.2784,-4.2781,-4.2779,0,-4.2429,-4.252,-4.2611,-4.2631,-4.266,-4.2703,-4.2717,-4.2742,-4.2774,-4.2815,-4.2835,-4.2884,-4.291,-4.2948,-4.2934,-4.2881,-4.304,-4.2964,-4.3038,-4.3038,-4.3071,-4.3068,-4.3299,-4.3095,-4.3094,-4.3094,-4.3093,0,-4.2605,-4.2688,-4.2675,-4.2731,-4.2822,-4.2802,-4.2892,-4.29,-4.2923,-4.2979,-4.2941,-4.2994,-4.2974,-4.3026,-4.3015,-4.3102,-4.3115,-4.3113,-4.3109,-4.3115,-4.3115,-4.313,-4.3118,-4.31,-4.3099,-4.3097,-4.3096,0,-4.2776,-4.2771,-4.2867,-4.2888,-4.2895,-4.2961,-4.2978,-4.303,-4.303,-4.3101,-4.3117,-4.3116,-4.3175,-4.3165,-4.3231,-4.3224,-4.3331,-4.3316,-4.3321,-4.3317,-4.339,-4.3382,-4.3636,-4.3667,-4.3446,-4.3448,-4.345,0,-4.2887,-4.295,-4.2978,-4.3013,-4.303,-4.3088,-4.3121,-4.3103,-4.3139,-4.3178,-4.3225,-4.3281,-4.3325,-4.3422,-4.3426,-4.3476,-4.346,-4.3545,-4.3467,-4.347,-4.3457,-4.3453,-4.3458,-4.3559,-4.3562,-4.3564,-4.3566,0,-4.3083,-4.3078,-4.3127,-4.3177,-4.3218,-4.3255,-4.3289,-4.332,-4.3306,-4.3348,-4.3409,-4.3443,-4.3511,-4.3566,-4.3613,-4.3627,-4.3594,-4.3591,-4.361,-4.3615,-4.3615,-4.3613,-4.336,-4.3584,-4.3583,-4.3581,-4.358,-4.3579,-4.3225,-4.3279,-4.3306,-4.3363,-4.3387,-4.342,-4.347,-4.3476,-4.3527,-4.358,-4.3568,-4.3636,-4.3664,-4.3724,-4.3743,-4.3796,-4.3764,-4.3792,-4.3799,-4.3805,-4.3813,-4.361,-4.3805,-4.3804,-4.3803,-4.3803,-4.3803,0,-4.3417,-4.3433,-4.3486,-4.3534,-4.3579,-4.3547,-4.3583,-4.3621,-4.3682,-4.3712,-4.3756,-4.3825,-4.388,-4.389,-4.3941,-4.3981,-4.3967,-4.3995,-4.399,-4.3993,-4.384,-4.3816,-4.4005,-4.4005,-4.4005,-4.4005,-4.4005,-4.4005,-4.3521,-4.3609,-4.3608,-4.3707,-4.3722,-4.3789,-4.3812,-4.3842,-4.3865,-4.3945,-4.399,-4.3997,-4.4018,-4.4071,-4.412,-4.4121,-4.414,-4.4174,-4.4169,-4.4025,-4.4004,-4.3985,-4.3963,-4.4179,-4.4179,-4.4318,-4.4319,-4.432]},{"header":{"parameterUnit":"m.s-1","parameterCategory":1,"la1":30.2991,"la2":30.254,"lo1":-89.0895,"lo2":-89.0444,"dy":0.0017,"dx":0.0017,"nx":28,"ny":28,"refTime":"2025-12-19T09:00:00:Z","depth":0,"parameterNumber":3,"parameterNumberName":"V-component_of_WINDS"},"data":[0,0,0,0,0,0,0,0,0,0,0,0,0,0,0,0,0,0,0,0,0,0,0,0,0,0,0,0,0,0,0,0,0,0,0,0,0,0,0,0,0,0,0,0,0,0,0,0,0,0,0,0,0,0,0,0,0,0,1.4815,1.4814,0,1.48,1.48,1.48,1.4725,1.4723,1.4721,1.472,1.4705,1.4706,1.4707,0,0,0,0,0,0,0,0,0,0,0,0,0,1.4779,1.478,1.4815,1.4814,1.4814,1.48,1.48,1.48,1.4725,1.4723,1.4721,1.4719,1.4704,1.4706,1.4707,0,0,0,0,0,0,0,0,0,0,0,0,0,1.4782,1.478,1.4815,1.4775,1.4772,1.48,1.48,1.48,1.4726,1.4723,1.472,1.4718,1.4704,1.4706,1.4707,1.4772,0,0,1.4713,1.4714,0,0,0,0,0,0,0,0,1.4782,1.4784,1.4781,1.4778,1.4774,1.4761,1.4782,1.479,1.4726,1.4743,1.4719,1.4716,1.4726,1.4726,1.4729,1.4772,1.4771,1.4713,1.4714,1.4715,1.4716,0,0,0,0,0,0,0,1.4782,1.4784,1.4809,1.4781,1.4777,1.4759,1.4756,1.4783,1.475,1.4741,1.4736,1.4735,1.4723,1.4727,1.4728,1.4771,1.4713,1.4715,1.4716,1.4717,1.4868,1.4871,0,0,0,0,0,0,1.4787,1.4784,1.4809,1.4808,1.4772,1.4762,1.4759,1.4768,1.4749,1.4744,1.4738,1.4732,1.4725,1.4726,1.4727,1.4803,1.4715,1.4717,1.4718,1.4865,1.4868,1.4872,0,0,0,0,0,0,1.4787,1.479,1.481,1.4795,1.4796,1.4765,1.4776,1.4769,1.4773,1.4746,1.474,1.4748,1.4723,1.4724,1.4762,1.4801,1.4718,1.472,1.4862,1.4866,1.487,1.4954,0,0,0,0,0,0,1.4786,1.4791,1.4815,1.4796,1.4797,1.4845,1.4779,1.4771,1.4777,1.4769,1.4754,1.4749,1.4721,1.476,1.4764,1.4802,1.4721,1.4858,1.4864,1.4869,1.4948,1.4961,1.4972,0,0,0,0,0,1.4785,1.4839,1.4816,1.482,1.4826,1.4847,1.4848,1.4815,1.478,1.4804,1.4787,1.4749,1.4796,1.4764,1.4768,1.4808,1.4855,1.4862,1.4868,1.4942,1.4958,1.4972,0,0,0,0,0,0,1.4862,1.4835,1.481,1.4859,1.4856,1.4835,1.4864,1.4833,1.4839,1.4832,1.4791,1.4788,1.4832,1.4823,1.4788,1.487,1.4819,1.4827,1.4874,1.4889,1.4901,1.4902,1.4723,0,0,0,0,0,1.4885,1.4904,1.4879,1.4925,1.4925,1.4895,1.4903,1.4878,1.4873,1.4871,1.4857,1.4854,1.4868,1.4878,1.4889,1.4946,1.4942,1.4975,1.4988,1.4998,1.5005,1.5035,1.505,1.4893,1.4893,1.4893,0,0,1.4932,1.492,1.4934,1.494,1.4935,1.4956,1.4894,1.4919,1.4934,1.4875,1.491,1.49,1.4893,1.4941,1.4962,1.4936,1.5048,1.5006,1.5014,1.5016,1.5044,1.5058,1.5072,1.4897,1.4896,1.4896,0,0,1.5028,1.5021,1.5058,1.5055,1.5048,1.5028,1.5037,1.5021,1.5012,1.5046,1.5003,1.502,1.5045,1.5043,1.5045,1.5143,1.5109,1.5148,1.5211,1.5242,1.5254,1.5265,1.53,1.5314,1.5155,1.5155,1.5155,0,1.5087,1.5117,1.5081,1.511,1.5114,1.5062,1.51,1.5098,1.5096,1.51,1.5071,1.5102,1.5094,1.5141,1.5166,1.5169,1.5179,1.5149,1.5255,1.5265,1.5275,1.5309,1.5322,1.516,1.516,1.5159,1.5159,0,1.5191,1.5213,1.5244,1.5243,1.5251,1.5284,1.5254,1.5267,1.5242,1.5225,1.5261,1.525,1.5259,1.5269,1.5244,1.5313,1.5297,1.5262,1.521,1.5295,1.5326,1.5339,1.5167,1.5165,1.5164,1.5163,0,0,1.5334,1.5315,1.5327,1.5326,1.5316,1.5332,1.5363,1.5372,1.5384,1.5385,1.541,1.5433,1.5401,1.5404,1.5379,1.5405,1.5485,1.5367,1.5366,1.539,1.5561,1.5588,1.5603,1.5462,1.5465,1.5466,1.5562,0,1.5427,1.5479,1.5449,1.5505,1.5526,1.5477,1.5505,1.5502,1.5487,1.5503,1.5487,1.5504,1.546,1.5462,1.5486,1.547,1.5519,1.5463,1.5486,1.5487,1.5489,1.5619,1.5647,1.5738,1.5574,1.5576,1.5577,0,1.5541,1.5548,1.5607,1.5594,1.5601,1.5626,1.5633,1.5648,1.5644,1.5632,1.5636,1.5605,1.5635,1.5584,1.5626,1.5588,1.5596,1.559,1.5593,1.5594,1.5538,1.5624,1.5766,1.578,1.5596,1.5594,1.5593,0,1.5641,1.5664,1.5703,1.5704,1.569,1.5709,1.5704,1.5697,1.5705,1.5711,1.5716,1.5725,1.573,1.5738,1.5711,1.5676,1.5757,1.5703,1.5748,1.5749,1.5767,1.5766,1.5912,1.5772,1.5771,1.5771,1.5771,0,1.5748,1.5786,1.5748,1.5771,1.5813,1.5778,1.5821,1.581,1.5805,1.5827,1.5785,1.5806,1.5769,1.5786,1.5765,1.5803,1.5805,1.5797,1.5791,1.5801,1.5802,1.5805,1.5799,1.5775,1.5774,1.5773,1.5773,0,1.5866,1.5841,1.5881,1.5864,1.5861,1.5893,1.5879,1.5901,1.5884,1.5912,1.5917,1.5891,1.5909,1.5883,1.5898,1.5884,1.5937,1.5921,1.5938,1.5934,1.5981,1.5977,1.6134,1.6153,1.6,1.6002,1.6003,0,1.5936,1.5964,1.5952,1.5963,1.5961,1.598,1.5988,1.5955,1.5966,1.5964,1.5986,1.6001,1.6012,1.6044,1.6026,1.6038,1.6023,1.6077,1.6024,1.6034,1.6024,1.6023,1.6026,1.6088,1.609,1.6091,1.6092,0,1.6062,1.605,1.6063,1.6073,1.6084,1.6091,1.6094,1.6106,1.6071,1.6085,1.6104,1.6112,1.6128,1.6144,1.6152,1.6147,1.6115,1.6109,1.612,1.6131,1.614,1.6137,1.5968,1.6106,1.6104,1.6104,1.6103,1.6102,1.6159,1.6182,1.6178,1.6195,1.6194,1.6198,1.6218,1.6205,1.622,1.6231,1.6211,1.6235,1.6231,1.6239,1.6237,1.6256,1.6232,1.6248,1.6252,1.6257,1.6265,1.6137,1.6257,1.6257,1.6256,1.6256,1.6256,0,1.6284,1.6279,1.6295,1.6301,1.6315,1.6284,1.6286,1.63,1.6322,1.6321,1.6333,1.6355,1.6371,1.6355,1.6368,1.6386,1.6372,1.639,1.6389,1.6389,1.6284,1.6274,1.6402,1.6402,1.6402,1.6402,1.6402,1.6402,1.6351,1.639,1.6377,1.6415,1.6409,1.6433,1.6437,1.6442,1.6441,1.6468,1.6481,1.6471,1.6465,1.6477,1.649,1.6485,1.6492,1.6517,1.6507,1.641,1.6396,1.6382,1.6372,1.6518,1.6519,1.6609,1.661,1.6611]}]]